CW2931 Weather Reports


Display with metric or nautical units.
time (UTC)temp
F
wind
direction
speed
MPH
gust
MPH
rain 1hr
in
rain 24hr
in
rain mn
in
humidity
%
barometer
mb
20260509093605 52 208 0.0 0.0 0.00 0.00 0.00 90 1004.5
20260509093105 52 232 0.0 0.0 0.00 0.00 0.00 90 1004.5
20260509092605 52 236 0.0 0.0 0.00 0.00 0.00 90 1004.5
20260509092105 52 229 0.0 0.0 0.00 0.00 0.00 89 1004.5
20260509091605 52 229 0.0 0.0 0.00 0.00 0.00 89 1004.6
20260509091104 52 238 0.0 0.0 0.00 0.00 0.00 89 1004.7
20260509090604 52 238 0.0 0.0 0.00 0.00 0.00 89 1004.8
20260509085104 51 239 0.0 0.0 0.00 0.00 0.00 89 1004.9
20260509084605 51 239 0.0 0.0 0.00 0.00 0.00 88 1004.9
20260509084104 51 221 0.0 0.0 0.00 0.00 0.00 88 1004.9
20260509083605 51 241 0.0 0.0 0.00 0.00 0.00 88 1004.9
20260509083104 51 250 0.0 0.0 0.00 0.00 0.00 88 1004.9
20260509082605 51 250 0.0 0.0 0.00 0.00 0.00 88 1005.0
20260509082105 51 250 0.0 0.0 0.00 0.00 0.00 88 1005.0
20260509081605 52 250 0.0 0.0 0.00 0.00 0.00 88 1004.9
20260509080604 51 250 0.0 0.0 0.00 0.00 0.00 87 1004.9
20260509080104 52 250 0.0 0.0 0.00 0.00 0.00 87 1004.9
20260509075604 52 250 0.0 0.0 0.00 0.00 0.00 87 1005.0
20260509075105 52 250 0.0 0.0 0.00 0.00 0.00 87 1005.1
20260509074105 52 250 0.0 0.0 0.00 0.00 0.00 87 1004.9
20260509073605 52 250 0.0 0.0 0.00 0.00 0.00 86 1005.0
20260509073105 52 250 0.0 0.0 0.00 0.00 0.00 86 1005.1
20260509072605 52 250 0.0 0.0 0.00 0.00 0.00 86 1005.1
20260509072105 52 250 0.0 0.0 0.00 0.00 0.00 86 1005.3
20260509071604 52 250 0.0 0.0 0.00 0.00 0.00 86 1005.4
20260509070604 52 250 0.0 0.0 0.00 0.00 0.00 85 1005.4
20260509070105 52 250 0.0 0.0 0.00 0.00 0.00 85 1005.5
20260509065604 52 250 0.0 0.0 0.00 0.00 0.00 85 1005.5
20260509065104 52 250 0.0 0.0 0.00 0.00 0.00 84 1005.5
20260509064604 52 250 0.0 0.0 0.00 0.00 0.00 84 1005.5
20260509064104 52 250 0.0 0.0 0.00 0.00 0.00 84 1005.5
20260509063604 52 250 0.0 0.0 0.00 0.00 0.00 83 1005.7
20260509062605 53 250 0.0 0.0 0.00 0.00 0.00 82 1005.7
20260509061605 53 251 0.0 0.0 0.00 0.00 0.00 81 1005.7
20260509060605 54 252 0.0 0.0 0.00 0.00 0.00 81 1005.8
20260509060104 54 252 0.0 0.0 0.00 0.00 0.00 81 1005.9
20260509055604 54 252 0.0 0.0 0.00 0.00 0.00 81 1006.0
20260509055105 55 252 0.0 0.0 0.00 0.00 0.00 81 1006.0
20260509054605 55 239 0.0 0.0 0.00 0.00 0.00 81 1006.0
20260509054105 55 250 0.0 0.0 0.00 0.00 0.00 81 1006.0
20260509053604 56 251 0.0 0.0 0.00 0.00 0.00 82 1006.0
20260509053104 56 252 0.0 0.0 0.00 0.00 0.00 82 1006.1
20260509052604 56 252 0.0 0.0 0.00 0.00 0.00 82 1006.1
20260509051604 56 252 0.0 0.0 0.00 0.00 0.00 82 1006.1
20260509051104 56 250 0.0 0.0 0.00 0.00 0.00 82 1006.2
20260509050604 56 233 0.0 0.0 0.00 0.00 0.00 82 1006.3
20260509045604 56 238 0.0 0.0 0.00 0.00 0.00 82 1006.1
20260509045104 56 258 0.0 0.0 0.00 0.00 0.00 82 1006.3
20260509044605 56 259 0.0 0.0 0.00 0.00 0.00 82 1006.3
20260509044104 56 242 0.0 0.0 0.00 0.00 0.00 82 1006.5
20260509043604 56 254 0.0 0.0 0.00 0.00 0.00 82 1006.5
20260509042604 56 225 0.0 0.0 0.00 0.00 0.00 82 1006.5
20260509041604 57 236 0.0 0.0 0.00 0.00 0.00 81 1006.6
20260509041105 57 263 0.0 0.0 0.00 0.00 0.00 81 1006.6
20260509040605 57 236 0.0 0.0 0.00 0.00 0.00 81 1006.6
20260509040104 57 238 0.0 0.0 0.00 0.00 0.00 81 1006.6
20260509035604 57 229 0.0 0.0 0.00 0.00 0.00 81 1006.7
20260509035104 57 233 0.0 0.0 0.00 0.00 0.00 81 1006.7
20260509034105 57 238 0.0 0.0 0.00 0.00 0.00 80 1006.7
20260509033604 57 236 0.0 0.0 0.00 0.00 0.00 80 1006.8
20260509033107 57 244 0.0 0.0 0.00 0.00 0.00 80 1006.8
20260509032604 57 230 0.0 0.0 0.00 0.00 0.00 80 1006.8
20260509032104 57 244 0.0 0.0 0.00 0.00 0.00 79 1006.9
20260509031604 57 233 0.0 0.0 0.00 0.00 0.00 79 1007.0
20260509031105 57 247 0.0 0.0 0.00 0.00 0.00 79 1007.1
20260509030604 57 258 0.0 0.0 0.00 0.00 0.00 78 1007.1
20260509030104 57 241 0.0 0.0 0.00 0.00 0.00 78 1007.1
20260509025605 57 248 0.0 0.0 0.00 0.00 0.00 78 1007.1
20260509025105 57 253 0.0 0.0 0.00 0.00 0.00 77 1007.1
20260509024604 57 251 0.0 0.0 0.00 0.00 0.00 77 1007.0
20260509024104 57 256 0.0 0.0 0.00 0.00 0.00 77 1007.1
20260509023604 57 261 0.0 0.0 0.00 0.00 0.00 76 1007.1
20260509023104 57 237 0.0 0.0 0.00 0.00 0.00 75 1007.1
20260509021104 58 220 0.0 0.0 0.00 0.00 0.00 73 1007.1
20260509020604 58 239 0.0 0.0 0.00 0.00 0.00 73 1007.0
20260509015604 58 222 0.0 0.0 0.00 0.00 0.00 72 1006.9
20260509015104 59 203 0.0 0.0 0.00 0.00 0.00 71 1006.9
20260509013605 59 198 0.0 0.0 0.00 0.00 0.00 69 1006.7
20260509013105 60 260 0.0 0.0 0.00 0.00 0.00 69 1006.6
20260509012604 60 209 0.0 0.0 0.00 0.00 0.00 69 1006.6
20260509012105 60 223 0.0 0.0 0.00 0.00 0.00 68 1006.5
20260509011605 60 212 0.0 0.0 0.00 0.00 0.00 67 1006.5
20260509011104 60 226 0.0 0.0 0.00 0.00 0.00 66 1006.4
20260509010104 61 216 0.0 0.0 0.00 0.00 0.00 64 1006.2
20260509005604 61 211 0.0 0.0 0.00 0.00 0.00 63 1006.1
20260509005104 61 232 0.0 0.0 0.00 0.00 0.00 62 1006.1
20260509004604 61 211 0.0 0.0 0.00 0.00 0.00 60 1006.1
20260509004105 61 207 0.0 0.0 0.00 0.00 0.00 59 1006.1
20260509003605 62 205 0.0 0.0 0.00 0.00 0.00 58 1006.1
20260509003105 62 219 0.0 0.0 0.00 0.00 0.00 58 1006.1
20260509002605 62 200 0.0 0.0 0.00 0.00 0.00 58 1006.1
20260509002104 62 263 0.0 0.0 0.00 0.00 0.00 57 1006.0
20260509001104 63 197 0.0 0.0 0.00 0.00 0.00 57 1006.0
20260509000604 63 189 0.0 0.0 0.00 0.00 0.00 57 1006.0
20260509000105 63 205 0.0 0.0 0.00 0.00 0.00 57 1006.0
20260508235604 63 206 0.0 0.0 0.00 0.00 0.00 57 1006.0
20260508235104 63 219 0.0 0.0 0.00 0.00 0.00 57 1006.0
20260508234605 64 213 0.0 0.0 0.00 0.00 0.00 57 1006.0
20260508234104 64 232 0.0 0.0 0.00 0.00 0.00 57 1006.0
20260508233604 64 253 0.0 0.0 0.00 0.00 0.00 58 1006.0
20260508233105 64 227 0.0 0.0 0.00 0.00 0.00 59 1006.0
20260508232604 64 221 0.0 0.0 0.00 0.00 0.00 58 1006.0
20260508231604 64 195 0.0 0.0 0.00 0.00 0.00 60 1006.0
20260508230604 64 239 0.0 0.0 0.00 0.00 0.00 63 1006.0
20260508230104 63 204 0.0 0.0 0.00 0.00 0.00 63 1006.0
20260508225104 63 201 0.0 0.0 0.00 0.00 0.00 64 1006.1
20260508224604 63 185 0.0 0.0 0.00 0.00 0.00 65 1006.1
20260508224104 63 194 0.0 0.0 0.00 0.00 0.00 66 1006.1
20260508223604 63 178 0.0 0.0 0.00 0.00 0.00 67 1006.1
20260508223104 63 169 0.0 0.0 0.00 0.00 0.00 67 1006.2
20260508222604 63 151 0.0 0.0 0.00 0.00 0.00 66 1006.2
20260508222104 62 168 0.0 0.0 0.00 0.00 0.00 66 1006.4
20260508221104 62 195 0.0 0.0 0.00 0.00 0.00 67 1006.6
20260508220604 62 171 0.0 0.0 0.00 0.00 0.00 66 1006.6
20260508215604 62 182 0.0 0.0 0.00 0.00 0.00 65 1006.6
20260508215104 62 201 0.0 0.0 0.00 0.00 0.00 65 1006.7
20260508214604 62 186 0.0 0.0 0.00 0.00 0.00 65 1006.7
20260508214104 62 190 0.0 0.0 0.00 0.00 0.00 63 1006.7
20260508213604 63 187 0.0 0.0 0.00 0.00 0.00 62 1006.6
20260508213104 63 179 0.0 0.0 0.00 0.00 0.00 64 1006.6
20260508212604 63 149 0.0 0.0 0.00 0.00 0.00 62 1006.7
20260508212104 63 157 0.0 0.0 0.00 0.00 0.00 60 1006.7
20260508211105 64 184 0.0 0.0 0.00 0.00 0.00 57 1006.7
20260508210104 64 170 0.0 0.0 0.00 0.00 0.00 56 1006.8
20260508205104 64 185 0.0 0.0 0.00 0.00 0.00 58 1006.8
20260508204604 64 190 0.0 0.0 0.00 0.00 0.00 57 1007.0
20260508204104 64 191 0.0 0.0 0.00 0.00 0.00 58 1006.9
20260508203604 64 167 0.0 0.0 0.00 0.00 0.00 58 1006.9
20260508203104 64 189 0.0 0.0 0.00 0.00 0.00 57 1007.0
20260508202604 63 209 0.0 0.0 0.00 0.00 0.00 59 1007.0
20260508202104 63 143 0.0 0.0 0.00 0.00 0.00 61 1007.0
20260508201604 63 153 0.0 0.0 0.00 0.00 0.00 60 1007.2
20260508200604 63 179 0.0 0.0 0.00 0.00 0.00 56 1007.6
20260508195605 63 174 0.0 0.0 0.00 0.00 0.00 57 1007.7
20260508195105 63 208 0.0 0.0 0.00 0.00 0.00 58 1007.7
20260508194604 63 175 0.0 0.0 0.00 0.00 0.00 58 1007.8
20260508194104 63 154 0.0 0.0 0.00 0.00 0.00 58 1007.9
20260508193604 64 188 0.0 0.0 0.00 0.00 0.00 57 1008.0
20260508193104 64 107 0.0 0.0 0.00 0.00 0.00 58 1008.1
20260508192604 63 142 0.0 0.0 0.00 0.00 0.00 60 1008.2
20260508192104 63 148 0.0 0.0 0.00 0.00 0.00 60 1008.3
20260508191104 62 176 0.0 0.0 0.00 0.00 0.00 56 1008.7
20260508190604 63 151 0.0 0.0 0.00 0.00 0.00 58 1008.5
20260508185604 61 155 0.0 0.0 0.00 0.00 0.00 55 1008.8
20260508185104 62 171 0.0 0.0 0.00 0.00 0.00 56 1008.8
20260508184604 61 113 0.0 0.0 0.00 0.00 0.00 55 1008.8
20260508184104 62 142 0.0 0.0 0.00 0.00 0.00 54 1008.8
20260508183604 62 177 0.0 0.0 0.00 0.00 0.00 55 1008.8
20260508183104 62 212 0.0 0.0 0.00 0.00 0.00 54 1008.9
20260508182604 62 128 0.0 0.0 0.00 0.00 0.00 55 1008.8
20260508182104 62 148 0.0 0.0 0.00 0.00 0.00 54 1008.8
20260508181604 62 155 0.0 0.0 0.00 0.00 0.00 52 1008.8
20260508180604 62 219 0.0 0.0 0.00 0.00 0.00 54 1009.0
20260508180104 62 163 0.0 0.0 0.00 0.00 0.00 54 1009.1
20260508175603 61 117 0.0 0.0 0.00 0.00 0.00 55 1009.2
20260508175104 61 56 0.0 0.0 0.00 0.00 0.00 53 1009.3
20260508174604 61 62 0.0 0.0 0.00 0.00 0.00 52 1009.4
20260508174104 61 173 0.0 0.0 0.00 0.00 0.00 52 1009.6
20260508173604 61 125 0.0 0.0 0.00 0.00 0.00 54 1009.7
20260508173104 61 170 0.0 0.0 0.00 0.00 0.00 52 1009.8
20260508172604 62 169 0.0 0.0 0.00 0.00 0.00 51 1009.8
20260508172104 62 156 0.0 0.0 0.00 0.00 0.00 47 1009.8
20260508171604 64 169 0.0 0.0 0.00 0.00 0.00 44 1009.8
20260508171104 64 184 0.0 0.0 0.00 0.00 0.00 44 1009.9
20260508170604 63 252 0.0 0.0 0.00 0.00 0.00 43 1009.9
20260508170104 63 169 0.0 0.0 0.00 0.00 0.00 44 1009.9
20260508165604 63 246 0.0 0.0 0.00 0.00 0.00 43 1010.2
20260508165104 63 273 0.0 0.0 0.00 0.00 0.00 42 1010.3
20260508164604 62 228 0.0 0.0 0.00 0.00 0.00 42 1010.4
20260508164104 63 209 0.0 0.0 0.00 0.00 0.00 43 1010.4
20260508163604 62 229 0.0 0.0 0.00 0.00 0.00 44 1010.5
20260508163104 62 179 0.0 0.0 0.00 0.00 0.00 45 1010.6
20260508162604 62 169 0.0 0.0 0.00 0.00 0.00 45 1010.6
20260508161604 61 219 0.0 0.0 0.00 0.00 0.00 45 1010.8
20260508161104 61 219 0.0 0.0 0.00 0.00 0.00 46 1010.8
20260508160604 61 249 0.0 0.0 0.00 0.00 0.00 46 1010.8
20260508160104 61 237 0.0 0.0 0.00 0.00 0.00 46 1010.9
20260508155604 60 167 0.0 0.0 0.00 0.00 0.00 47 1010.9
20260508155104 60 188 0.0 0.0 0.00 0.00 0.00 47 1010.9
20260508154604 60 357 0.0 0.0 0.00 0.00 0.00 47 1011.0
20260508154104 60 338 0.0 0.0 0.00 0.00 0.00 48 1010.9
20260508153604 60 6 0.0 0.0 0.00 0.00 0.00 48 1010.9
20260508153104 60 313 0.0 0.0 0.00 0.00 0.00 48 1011.0
20260508152604 60 247 0.0 0.0 0.00 0.00 0.00 49 1011.0
20260508152104 59 312 0.0 0.0 0.00 0.00 0.00 49 1011.0
20260508151604 59 311 0.0 0.0 0.00 0.00 0.00 52 1011.0
20260508151104 59 347 0.0 0.0 0.00 0.00 0.00 51 1011.0
20260508150604 59 248 0.0 0.0 0.00 0.00 0.00 51 1011.0
20260508150104 59 93 0.0 0.0 0.00 0.00 0.00 52 1011.1
20260508145604 59 89 0.0 0.0 0.00 0.00 0.00 53 1011.1
20260508145104 59 91 0.0 0.0 0.00 0.00 0.00 56 1011.3
20260508144604 58 355 0.0 0.0 0.00 0.00 0.00 57 1011.3
20260508144104 58 261 0.0 0.0 0.00 0.00 0.00 58 1011.3
20260508143603 57 113 0.0 0.0 0.00 0.00 0.00 58 1011.4
20260508143104 57 149 0.0 0.0 0.00 0.00 0.00 59 1011.5
20260508142604 57 251 0.0 0.0 0.00 0.00 0.00 59 1011.5
20260508142104 57 269 0.0 0.0 0.00 0.00 0.00 60 1011.5
20260508141604 56 269 0.0 0.0 0.00 0.00 0.00 61 1011.5
20260508141103 56 239 0.0 0.0 0.00 0.00 0.00 63 1011.5
20260508140604 56 265 0.0 0.0 0.00 0.00 0.00 65 1011.5
20260508140103 55 245 0.0 0.0 0.00 0.00 0.00 66 1011.5
20260508135604 55 331 0.0 0.0 0.00 0.00 0.00 67 1011.6
20260508135104 55 330 0.0 0.0 0.00 0.00 0.00 67 1011.6
20260508134603 54 323 0.0 0.0 0.00 0.00 0.00 68 1011.6
20260508134104 54 233 0.0 0.0 0.00 0.00 0.00 69 1011.6
20260508133604 54 238 0.0 0.0 0.00 0.00 0.00 70 1011.6
20260508133104 54 256 0.0 0.0 0.00 0.00 0.00 72 1011.6
20260508132604 53 253 0.0 0.0 0.00 0.00 0.00 73 1011.6
20260508132104 53 251 0.0 0.0 0.00 0.00 0.00 74 1011.6
20260508131604 53 244 0.0 0.0 0.00 0.00 0.00 75 1011.6
20260508131103 52 199 0.0 0.0 0.00 0.00 0.00 76 1011.6
20260508130606 52 202 0.0 0.0 0.00 0.00 0.00 76 1011.6
20260508125603 51 205 0.0 0.0 0.00 0.00 0.00 79 1011.6
20260508124604 50 204 0.0 0.0 0.00 0.00 0.00 81 1011.6
20260508124104 50 217 0.0 0.0 0.00 0.00 0.00 81 1011.6
20260508123604 50 209 0.0 0.0 0.00 0.00 0.00 82 1011.5
20260508123104 49 223 0.0 0.0 0.00 0.00 0.00 83 1011.5
20260508122604 49 202 0.0 0.0 0.00 0.00 0.00 83 1011.5
20260508122103 48 202 0.0 0.0 0.00 0.00 0.00 84 1011.5
20260508121603 48 247 0.0 0.0 0.00 0.00 0.00 84 1011.5
20260508121103 48 251 0.0 0.0 0.00 0.00 0.00 85 1011.5
20260508120604 47 254 0.0 0.0 0.00 0.00 0.00 85 1011.5
20260508115604 46 252 0.0 0.0 0.00 0.00 0.00 85 1011.5
20260508115104 46 245 0.0 0.0 0.00 0.00 0.00 84 1011.4
20260508114603 45 243 0.0 0.0 0.00 0.00 0.00 84 1011.3
20260508113604 44 246 0.0 0.0 0.00 0.00 0.00 83 1011.0
20260508113104 44 246 0.0 0.0 0.00 0.00 0.00 82 1011.0
20260508112603 44 244 0.0 0.0 0.00 0.00 0.00 82 1011.0
20260508111604 43 238 0.0 0.0 0.00 0.00 0.00 81 1011.0
20260508111104 43 242 0.0 0.0 0.00 0.00 0.00 81 1010.9
20260508110104 44 243 0.0 0.0 0.00 0.00 0.00 81 1010.8
20260508105104 44 244 0.0 0.0 0.00 0.00 0.00 81 1010.8
20260508104603 44 244 0.0 0.0 0.00 0.00 0.00 81 1010.8
20260508104103 44 244 0.0 0.0 0.00 0.00 0.00 80 1010.7
20260508103604 44 244 0.0 0.0 0.00 0.00 0.00 80 1010.7
20260508102104 44 244 0.0 0.0 0.00 0.00 0.00 80 1010.6
20260508101603 44 244 0.0 0.0 0.00 0.00 0.00 79 1010.7
20260508101104 44 244 0.0 0.0 0.00 0.00 0.00 79 1010.7
20260508100603 44 244 0.0 0.0 0.00 0.00 0.00 79 1010.5
20260508095104 45 244 0.0 0.0 0.00 0.00 0.00 78 1010.6
20260508094604 45 244 0.0 0.0 0.00 0.00 0.00 78 1010.6
20260508094103 45 244 0.0 0.0 0.00 0.00 0.00 78 1010.6